Ozona, TX

9:01 AM CDT on June 29, 2017 (GMT -0500)
Ozona Municipal

Weather History for KOZA - March, 2013

Change the Weather History Date:

Tuesday, March 26, 2013

  Actual Average Record
Temperature  
Mean Temperature 46 °F -  
Max Temperature 64 °F 72 °F 86 °F (2017)
Min Temperature 28 °F 44 °F 28 °F (2013)
Degree Days  
Heating Degree Days 19    
Moisture  
Dew Point 15 °F    
Average Humidity 28    
Maximum Humidity 48    
Minimum Humidity 14    
Precipitation  
Precipitation 0.00 in - - ()
Sea Level Pressure  
Sea Level Pressure 30.33 in    
Wind  
Wind Speed 10 mph (SSE)    
Max Wind Speed 22 mph    
Max Gust Speed 32 mph    
Visibility 10 miles    
Events      
Averages and records for this station are not official NWS values.
T = Trace of Precipitation, MM = Missing Value Source: NWS Daily Summary

Daily Weather History Graph

Daily Weather History Graph

Search for Another Location

Airport or City:

Trip Planner

Search our weather history database for the weather conditions in past years. The results will help you decide how hot, cold, wet, or windy it might be!

Date:

Astronomy

Mar. 26, 2013 Rise Set
Actual Time 7:40 AM CDT 8:00 PM CDT
Civil Twilight 7:16 AM CDT 8:24 PM CDT
Nautical Twilight 6:48 AM CDT 8:52 PM CDT
Astronomical Twilight 6:19 AM CDT 9:21 PM CDT
Moon 7:37 PM CDT (3/26) 6:57 AM CDT (3/26)
Length of Visible Light 13h 07m
Length of Day
12h 19m
Waxing Gibbous, 99% of the Moon is Illuminated
Mar 26
Waxing Gibbous
Mar 27
Full
Apr 2
Last Quarter
Apr 10
New
Apr 18
First Quarter

Hourly Weather History & Observations

Time (CDT) Temp. Windchill Dew Point Humidity Pressure Visibility Wind Dir Wind Speed Gust Speed Precip Events Conditions
12:15 AM 42.8 °F 36.2 °F 8.6 °F 25% 30.36 in 10.0 mi East 12.7 mph - N/A   Clear
12:35 AM 42.8 °F 37.0 °F 8.6 °F 25% 30.36 in 10.0 mi East 10.4 mph 16.1 mph N/A   Clear
12:55 AM 42.8 °F 37.0 °F 8.6 °F 25% 30.36 in 10.0 mi East 10.4 mph - N/A   Clear
1:15 AM 42.8 °F 36.2 °F 10.4 °F 27% 30.36 in 10.0 mi East 12.7 mph 20.7 mph N/A   Clear
1:35 AM 42.8 °F 36.2 °F 12.2 °F 29% 30.36 in 10.0 mi East 12.7 mph 16.1 mph N/A   Clear
1:55 AM 41.0 °F 35.2 °F 12.2 °F 31% 30.37 in 10.0 mi East 9.2 mph - N/A   Clear
2:15 AM 41.0 °F 36.4 °F 12.2 °F 31% 30.38 in 10.0 mi East 6.9 mph - N/A   Clear
2:35 AM 41.0 °F 37.1 °F 12.2 °F 31% 30.38 in 10.0 mi East 5.8 mph - N/A   Clear
2:55 AM 39.2 °F 35.9 °F 12.2 °F 33% 30.38 in 10.0 mi East 4.6 mph - N/A   Clear
3:15 AM 39.2 °F 35.9 °F 12.2 °F 33% 30.37 in 10.0 mi East 4.6 mph - N/A   Clear
3:35 AM 37.4 °F - 12.2 °F 36% 30.37 in 10.0 mi Calm Calm - N/A   Clear
3:55 AM 37.4 °F - 12.2 °F 36% 30.37 in 10.0 mi Calm Calm - N/A   Clear
4:15 AM 37.4 °F - 12.2 °F 36% 30.36 in 10.0 mi Calm Calm - N/A   Clear
4:35 AM 33.8 °F - 12.2 °F 41% 30.36 in 10.0 mi Calm Calm - N/A   Clear
4:55 AM 33.8 °F - 10.4 °F 38% 30.36 in 10.0 mi Calm Calm - N/A   Clear
5:15 AM 32.0 °F - 12.2 °F 44% 30.36 in 10.0 mi Calm Calm - N/A   Clear
5:35 AM 32.0 °F - 12.2 °F 44% 30.37 in 10.0 mi Calm Calm - N/A   Clear
5:55 AM 32.0 °F - 10.4 °F 41% 30.37 in 10.0 mi Calm Calm - N/A   Clear
6:15 AM 30.2 °F - 10.4 °F 44% 30.38 in 10.0 mi Calm Calm - N/A   Clear
6:35 AM 28.4 °F - 10.4 °F 47% 30.38 in 10.0 mi Calm Calm - N/A   Clear
6:55 AM 28.4 °F - 8.6 °F 43% 30.40 in 10.0 mi Calm Calm - N/A   Clear
7:15 AM 28.4 °F - 10.4 °F 47% 30.40 in 10.0 mi Calm Calm - N/A   Clear
7:35 AM 28.4 °F - 10.4 °F 47% 30.41 in 10.0 mi Calm Calm - N/A   Clear
7:55 AM 28.4 °F 24.6 °F 10.4 °F 47% 30.41 in 10.0 mi NNE 3.5 mph - N/A   Clear
8:15 AM 30.2 °F - 10.4 °F 44% 30.41 in 10.0 mi Calm Calm - N/A   Clear
8:35 AM 32.0 °F - 14.0 °F 48% 30.41 in 10.0 mi Calm Calm - N/A   Clear
8:55 AM 37.4 °F 32.8 °F 15.8 °F 41% 30.42 in 10.0 mi SSE 5.8 mph - N/A   Clear
9:15 AM 42.8 °F 36.2 °F 17.6 °F 36% 30.42 in 10.0 mi SSE 12.7 mph - N/A   Clear
9:35 AM 44.6 °F 38.4 °F 17.6 °F 34% 30.42 in 10.0 mi South 12.7 mph 21.9 mph N/A   Clear
9:55 AM 46.4 °F 39.5 °F 17.6 °F 32% 30.43 in 10.0 mi South 17.3 mph 21.9 mph N/A   Clear
10:15 AM 46.4 °F 39.8 °F 17.6 °F 32% 30.43 in 10.0 mi South 16.1 mph 26.5 mph N/A   Clear
10:35 AM 48.2 °F - 19.4 °F 32% 30.42 in 10.0 mi SSE 20.7 mph 27.6 mph N/A   Clear
10:55 AM 50.0 °F - 19.4 °F 30% 30.42 in 10.0 mi South 20.7 mph 25.3 mph N/A   Clear
11:15 AM 51.8 °F - 17.6 °F 26% 30.41 in 10.0 mi South 17.3 mph 26.5 mph N/A   Clear
11:35 AM 51.8 °F - 17.6 °F 26% 30.41 in 10.0 mi South 21.9 mph 27.6 mph N/A   Clear
11:55 AM 53.6 °F - 15.8 °F 22% 30.40 in 10.0 mi South 21.9 mph - N/A   Clear
12:15 PM 55.4 °F - 15.8 °F 21% 30.40 in 10.0 mi South 19.6 mph 26.5 mph N/A   Clear
12:35 PM 55.4 °F - 14.0 °F 20% 30.39 in 10.0 mi South 17.3 mph 25.3 mph N/A   Clear
12:55 PM 55.4 °F - 14.0 °F 20% 30.38 in 10.0 mi SSW 16.1 mph - N/A   Clear
1:15 PM 57.2 °F - 14.0 °F 18% 30.37 in 10.0 mi SSW 18.4 mph 23.0 mph N/A   Clear
1:35 PM 59.0 °F - 14.0 °F 17% 30.36 in 10.0 mi South 17.3 mph - N/A   Clear
1:55 PM 59.0 °F - 14.0 °F 17% 30.35 in 10.0 mi South 17.3 mph 21.9 mph N/A   Clear
2:15 PM 60.8 °F - 14.0 °F 16% 30.33 in 10.0 mi SSE 17.3 mph 23.0 mph N/A   Clear
2:35 PM 60.8 °F - 14.0 °F 16% 30.32 in 10.0 mi South 18.4 mph 27.6 mph N/A   Clear
2:55 PM 60.8 °F - 14.0 °F 16% 30.31 in 10.0 mi South 18.4 mph 24.2 mph N/A   Clear
3:15 PM 62.6 °F - 14.0 °F 15% 30.30 in 10.0 mi South 15.0 mph 25.3 mph N/A   Clear
3:35 PM 62.6 °F - 14.0 °F 15% 30.29 in 10.0 mi South 17.3 mph 24.2 mph N/A   Clear
3:55 PM 62.6 °F - 14.0 °F 15% 30.28 in 10.0 mi South 16.1 mph 25.3 mph N/A   Clear
4:15 PM 62.6 °F - 14.0 °F 15% 30.26 in 10.0 mi South 15.0 mph 26.5 mph N/A   Clear
4:35 PM 64.4 °F - 14.0 °F 14% 30.25 in 10.0 mi SSE 18.4 mph 26.5 mph N/A   Clear
4:55 PM 62.6 °F - 14.0 °F 15% 30.24 in 10.0 mi South 15.0 mph 26.5 mph N/A   Clear
5:15 PM 62.6 °F - 14.0 °F 15% 30.24 in 10.0 mi South 16.1 mph 25.3 mph N/A   Clear
5:35 PM 62.6 °F - 15.8 °F 16% 30.23 in 10.0 mi South 18.4 mph 25.3 mph N/A   Clear
5:55 PM 62.6 °F - 17.6 °F 18% 30.22 in 10.0 mi South 12.7 mph 32.2 mph N/A   Clear
6:15 PM 62.6 °F - 17.6 °F 18% 30.22 in 10.0 mi South 18.4 mph 26.5 mph N/A   Clear
6:35 PM 62.6 °F - 17.6 °F 18% 30.21 in 10.0 mi South 16.1 mph 27.6 mph N/A   Clear
6:55 PM 62.6 °F - 17.6 °F 18% 30.21 in 10.0 mi South 18.4 mph 28.8 mph N/A   Clear
7:15 PM 60.8 °F - 19.4 °F 20% 30.21 in 10.0 mi SSE 20.7 mph 27.6 mph N/A   Clear
7:35 PM 59.0 °F - 19.4 °F 22% 30.21 in 10.0 mi South 17.3 mph 27.6 mph N/A   Clear
7:55 PM 59.0 °F - 19.4 °F 22% 30.21 in 10.0 mi South 17.3 mph 25.3 mph N/A   Clear
8:15 PM 57.2 °F - 19.4 °F 23% 30.21 in 10.0 mi South 13.8 mph - N/A   Clear
8:35 PM 55.4 °F - 19.4 °F 25% 30.21 in 10.0 mi South 11.5 mph - N/A   Clear
8:55 PM 55.4 °F - 19.4 °F 25% 30.22 in 10.0 mi South 10.4 mph - N/A   Clear
9:15 PM 55.4 °F - 19.4 °F 25% 30.22 in 10.0 mi South 9.2 mph - N/A   Clear
9:35 PM 53.6 °F - 19.4 °F 26% 30.22 in 10.0 mi South 9.2 mph - N/A   Clear
9:55 PM 53.6 °F - 19.4 °F 26% 30.22 in 10.0 mi South 9.2 mph - N/A   Clear
10:15 PM 53.6 °F - 19.4 °F 26% 30.23 in 10.0 mi SSE 10.4 mph - N/A   Clear
10:35 PM 53.6 °F - 19.4 °F 26% 30.23 in 10.0 mi SSE 10.4 mph 17.3 mph N/A   Clear
10:55 PM 51.8 °F - 19.4 °F 28% 30.23 in 10.0 mi SSE 9.2 mph - N/A   Clear
11:15 PM 51.8 °F - 19.4 °F 28% 30.23 in 10.0 mi SSE 9.2 mph - N/A   Clear
11:35 PM 51.8 °F - 19.4 °F 28% 30.22 in 10.0 mi SSE 10.4 mph - N/A   Clear
11:55 PM 51.8 °F - 19.4 °F 28% 30.22 in 10.0 mi SSE 11.5 mph - N/A   Clear